Mineral Wells, TX

5:00 AM CDT on April 30, 2017 (GMT -0500)
Mineral Wells

Weather History for KMWL - July, 2013

Change the Weather History Date:

Monday, July 22, 2013

  Actual Average Record
Temperature  
Mean Temperature 84 °F -  
Max Temperature 96 °F 95 °F 105 °F (2001)
Min Temperature 73 °F 71 °F 69 °F (2007)
Cooling Degree Days 20    
Growing Degree Days 34 (Base 50)    
Moisture  
Dew Point 71 °F    
Average Humidity 65    
Maximum Humidity 97    
Minimum Humidity 41    
Precipitation  
Precipitation 0.00 in - - ()
Sea Level Pressure  
Sea Level Pressure 29.87 in    
Wind  
Wind Speed 8 mph (South)    
Max Wind Speed 15 mph    
Max Gust Speed 20 mph    
Visibility 10 miles    
Events      
Averages and records for this station are not official NWS values.
T = Trace of Precipitation, MM = Missing Value Source: NWS Daily Summary

Daily Weather History Graph

Daily Weather History Graph

Search for Another Location

Airport or City:

Trip Planner

Search our weather history database for the weather conditions in past years. The results will help you decide how hot, cold, wet, or windy it might be!

Date:

Astronomy

Jul. 22, 2013 Rise Set
Actual Time 6:39 AM CDT 8:37 PM CDT
Civil Twilight 6:12 AM CDT 9:04 PM CDT
Nautical Twilight 5:38 AM CDT 9:38 PM CDT
Astronomical Twilight 5:02 AM CDT 10:13 PM CDT
Moon 8:30 PM CDT (7/22) 6:34 AM CDT (7/22)
Length of Visible Light 14h 52m
Length of Day
13h 57m
Full, 100% of the Moon is Illuminated
Jul 22
Full
Jul 22
Full
Jul 29
Last Quarter
Aug 6
New
Aug 14
First Quarter

Hourly Weather History & Observations

Time (CDT) Temp. Heat Index Dew Point Humidity Pressure Visibility Wind Dir Wind Speed Gust Speed Precip Events Conditions
12:53 AM 80.1 °F 83.2 °F 70.0 °F 71% 29.88 in 10.0 mi SSE 8.1 mph - N/A   Clear
1:53 AM 78.1 °F - 71.1 °F 79% 29.88 in 10.0 mi SSE 6.9 mph - N/A   Clear
2:53 AM 77.0 °F - 72.0 °F 84% 29.87 in 10.0 mi SSE 5.8 mph - N/A   Clear
3:53 AM 75.9 °F - 72.0 °F 87% 29.87 in 10.0 mi SSE 5.8 mph - N/A   Clear
4:53 AM 75.0 °F - 73.0 °F 94% 29.87 in 10.0 mi South 3.5 mph - N/A   Clear
5:53 AM 73.9 °F - 73.0 °F 97% 29.88 in 10.0 mi SE 3.5 mph - N/A   Clear
6:53 AM 73.9 °F - 73.0 °F 97% 29.89 in 10.0 mi SE 4.6 mph - N/A   Clear
7:53 AM 77.0 °F - 73.9 °F 90% 29.91 in 10.0 mi SSE 9.2 mph - N/A   Clear
8:53 AM 81.0 °F 85.8 °F 73.0 °F 77% 29.92 in 10.0 mi South 10.4 mph - N/A   Clear
9:53 AM 84.9 °F 90.7 °F 72.0 °F 65% 29.93 in 10.0 mi SSW 11.5 mph 18.4 mph N/A   Clear
10:53 AM 88.0 °F 94.7 °F 72.0 °F 59% 29.92 in 10.0 mi South 15.0 mph - N/A   Partly Cloudy
11:53 AM 90.0 °F 97.9 °F 73.0 °F 57% 29.92 in 10.0 mi SW 9.2 mph - N/A   Scattered Clouds
12:53 PM 91.9 °F 100.7 °F 73.0 °F 54% 29.91 in 10.0 mi South 11.5 mph - N/A   Clear
1:53 PM 91.9 °F 98.4 °F 71.1 °F 50% 29.89 in 10.0 mi South 12.7 mph 19.6 mph N/A   Clear
2:53 PM 93.0 °F 100.1 °F 71.1 °F 49% 29.87 in 10.0 mi SSW 9.2 mph - N/A   Partly Cloudy
3:53 PM 91.9 °F 96.9 °F 69.1 °F 47% 29.86 in 10.0 mi SSW 11.5 mph - N/A   Scattered Clouds
4:53 PM 96.1 °F 102.9 °F 70.0 °F 43% 29.83 in 10.0 mi South 8.1 mph - N/A   Scattered Clouds
5:53 PM 95.0 °F 99.5 °F 68.0 °F 41% 29.83 in 10.0 mi South 12.7 mph - N/A   Mostly Cloudy
6:53 PM 93.0 °F 97.4 °F 68.0 °F 44% 29.81 in 10.0 mi South 10.4 mph - N/A   Clear
7:53 PM 91.9 °F 95.4 °F 66.9 °F 44% 29.81 in 10.0 mi SSE 11.5 mph - N/A   Clear
8:53 PM 88.0 °F 92.1 °F 69.1 °F 53% 29.83 in 10.0 mi SSE 5.8 mph - N/A   Clear
9:53 PM 84.9 °F 88.8 °F 69.1 °F 59% 29.86 in 10.0 mi SSE 5.8 mph - N/A   Clear
10:53 PM 84.0 °F 87.8 °F 69.1 °F 61% 29.87 in 10.0 mi South 8.1 mph - N/A   Clear
11:53 PM 82.0 °F 85.9 °F 70.0 °F 67% 29.88 in 10.0 mi SSE 8.1 mph - N/A   Clear